| time (UTC) | temp F | wind direction | speed MPH | gust MPH | rain 1hr in | rain 24hr in | rain mn in | humidity % | barometer mb |
| 20260503004607 | 49 | 30 | 0.0 | 4.0 | 0.00 | 0.00 | 0.00 | 85 | 1011.0 |
| 20260503003109 | 49 | 40 | 2.0 | 4.0 | 0.00 | 0.00 | 0.00 | 84 | 1011.0 |
| 20260503001612 | 50 | 42 | 1.0 | 3.0 | 0.00 | 0.00 | 0.00 | 84 | 1011.0 |
| 20260503000051 | 50 | 42 | 1.0 | 3.0 | 0.00 | 0.00 | 0.00 | 83 | 1011.1 |
| 20260502234549 | 50 | 42 | 1.0 | 2.0 | 0.00 | 0.00 | 0.00 | 83 | 1011.2 |
| 20260502233048 | 50 | 42 | 0.0 | 2.0 | 0.00 | 0.00 | 0.00 | 82 | 1011.3 |
| 20260502231547 | 50 | 42 | 0.0 | 2.0 | 0.00 | 0.00 | 0.00 | 82 | 1011.3 |
| 20260502230046 | 50 | 42 | 0.0 | 2.0 | 0.00 | 0.00 | 0.00 | 82 | 1011.5 |
| 20260502224543 | 50 | 42 | 1.0 | 4.0 | 0.00 | 0.00 | 0.00 | 81 | 1011.5 |
| 20260502223043 | 50 | 68 | 2.0 | 4.0 | 0.00 | 0.00 | 0.00 | 82 | 1011.6 |
| 20260502221541 | 50 | 72 | 1.0 | 3.0 | 0.00 | 0.00 | 0.00 | 81 | 1011.8 |
| 20260502220040 | 51 | 85 | 2.0 | 6.0 | 0.00 | 0.00 | 0.00 | 81 | 1011.9 |
| 20260502214538 | 50 | 74 | 1.0 | 4.0 | 0.00 | 0.00 | 0.00 | 84 | 1012.0 |
| 20260502213052 | 49 | 355 | 0.0 | 3.0 | 0.00 | 0.00 | 0.00 | 84 | 1012.1 |
| 20260502211539 | 49 | 360 | 0.0 | 3.0 | 0.00 | 0.00 | 0.00 | 83 | 1012.1 |
| 20260502210039 | 50 | 360 | 2.0 | 4.0 | 0.00 | 0.00 | 0.00 | 82 | 1012.2 |
| 20260502204537 | 50 | 355 | 3.0 | 4.0 | 0.00 | 0.00 | 0.00 | 81 | 1012.4 |
| 20260502203039 | 50 | 355 | 2.0 | 4.0 | 0.00 | 0.00 | 0.00 | 81 | 1012.4 |
| 20260502201535 | 50 | 17 | 2.0 | 4.0 | 0.00 | 0.00 | 0.00 | 82 | 1012.3 |
| 20260502200054 | 50 | 17 | 3.0 | 5.0 | 0.00 | 0.00 | 0.00 | 81 | 1012.3 |
| 20260502194538 | 51 | 24 | 3.0 | 5.0 | 0.00 | 0.01 | 0.00 | 81 | 1012.3 |
| 20260502193033 | 52 | 13 | 3.0 | 6.0 | 0.00 | 0.01 | 0.00 | 78 | 1012.3 |
| 20260502191532 | 54 | 240 | 0.0 | 1.0 | 0.00 | 0.01 | 0.00 | 77 | 1012.3 |
| 20260502190032 | 54 | 240 | 0.0 | 1.0 | 0.00 | 0.01 | 0.00 | 76 | 1012.2 |
| 20260502184531 | 55 | 240 | 0.0 | 1.0 | 0.00 | 0.02 | 0.00 | 75 | 1012.3 |
| 20260502183037 | 55 | 240 | 0.0 | 1.0 | 0.00 | 0.02 | 0.00 | 75 | 1012.3 |
| 20260502181530 | 55 | 240 | 1.0 | 4.0 | 0.00 | 0.02 | 0.00 | 74 | 1012.3 |
| 20260502163024 | 57 | 192 | 1.0 | 6.0 | 0.00 | 0.04 | 0.00 | 70 | 1012.6 |
| 20260502161522 | 57 | 206 | 2.0 | 7.0 | 0.00 | 0.04 | 0.00 | 73 | 1012.8 |
| 20260502151515 | 58 | 175 | 4.0 | 11.0 | 0.00 | 0.04 | 0.00 | 72 | 1013.4 |
| 20260502130105 | 55 | 207 | 7.0 | 13.0 | 0.00 | 0.06 | 0.00 | 79 | 1014.7 |
| 20260502123052 | 55 | 168 | 6.0 | 14.0 | 0.00 | 0.06 | 0.00 | 84 | 1014.7 |
| 20260502121558 | 54 | 166 | 4.0 | 9.0 | 0.00 | 0.06 | 0.00 | 89 | 1014.7 |
| 20260502114541 | 51 | 214 | 4.0 | 8.0 | 0.00 | 0.06 | 0.00 | 91 | 1015.0 |
| 20260502113051 | 51 | 190 | 4.0 | 10.0 | 0.00 | 0.06 | 0.00 | 92 | 1015.0 |
| 20260502111543 | 50 | 200 | 6.0 | 11.0 | 0.00 | 0.06 | 0.00 | 92 | 1015.1 |
| 20260502110037 | 50 | 209 | 5.0 | 10.0 | 0.00 | 0.06 | 0.00 | 92 | 1015.2 |
| 20260502104534 | 50 | 211 | 4.0 | 8.0 | 0.00 | 0.06 | 0.00 | 92 | 1015.2 |
| 20260502103057 | 49 | 202 | 6.0 | 9.0 | 0.00 | 0.06 | 0.00 | 92 | 1015.2 |
| 20260502101546 | 49 | 203 | 4.0 | 7.0 | 0.00 | 0.06 | 0.00 | 92 | 1015.3 |
| 20260502091528 | 49 | 209 | 5.0 | 10.0 | 0.00 | 0.06 | 0.00 | 92 | 1015.3 |
| 20260502071519 | 49 | 195 | 5.0 | 7.0 | 0.00 | 0.06 | 0.00 | 91 | 1015.0 |
| 20260502070016 | 49 | 204 | 6.0 | 10.0 | 0.00 | 0.06 | 0.00 | 91 | 1014.9 |
| 20260502064513 | 49 | 202 | 6.0 | 9.0 | 0.00 | 0.06 | 0.00 | 91 | 1014.8 |
| 20260502063015 | 49 | 212 | 4.0 | 9.0 | 0.00 | 0.06 | 0.00 | 92 | 1014.8 |
| 20260502061512 | 49 | 212 | 5.0 | 8.0 | 0.00 | 0.06 | 0.00 | 91 | 1014.8 |
| 20260502060011 | 49 | 198 | 6.0 | 11.0 | 0.00 | 0.06 | 0.00 | 91 | 1014.9 |
| 20260502054511 | 49 | 209 | 4.0 | 12.0 | 0.00 | 0.06 | 0.00 | 91 | 1014.9 |
| 20260502053007 | 49 | 215 | 5.0 | 11.0 | 0.00 | 0.06 | 0.00 | 91 | 1014.9 |
| 20260502051506 | 49 | 200 | 6.0 | 11.0 | 0.00 | 0.06 | 0.00 | 91 | 1015.0 |
| 20260502050005 | 49 | 205 | 6.0 | 11.0 | 0.00 | 0.06 | 0.00 | 91 | 1014.9 |
| 20260502044504 | 49 | 188 | 4.0 | 10.0 | 0.00 | 0.06 | 0.00 | 91 | 1014.8 |
| 20260502043003 | 49 | 201 | 6.0 | 9.0 | 0.00 | 0.06 | 0.00 | 91 | 1014.8 |
| 20260502041502 | 49 | 194 | 5.0 | 10.0 | 0.00 | 0.06 | 0.00 | 91 | 1014.9 |
| 20260502040000 | 49 | 184 | 6.0 | 10.0 | 0.00 | 0.06 | 0.00 | 91 | 1015.0 |
| 20260502034602 | 49 | 200 | 4.0 | 8.0 | 0.00 | 0.06 | 0.00 | 91 | 1015.0 |
| 20260502033058 | 49 | 196 | 4.0 | 10.0 | 0.00 | 0.06 | 0.00 | 90 | 1015.1 |
| 20260502031557 | 49 | 167 | 4.0 | 10.0 | 0.00 | 0.06 | 0.00 | 90 | 1015.2 |
| 20260502030106 | 49 | 211 | 3.0 | 9.0 | 0.00 | 0.06 | 0.00 | 90 | 1015.2 |
| 20260502024554 | 49 | 184 | 4.0 | 11.0 | 0.00 | 0.06 | 0.00 | 90 | 1015.2 |
| 20260502023057 | 49 | 221 | 4.0 | 10.0 | 0.00 | 0.06 | 0.00 | 90 | 1015.2 |
| 20260502021552 | 49 | 213 | 5.0 | 9.0 | 0.00 | 0.06 | 0.00 | 90 | 1015.6 |
| 20260502020049 | 49 | 200 | 4.0 | 10.0 | 0.00 | 0.06 | 0.00 | 90 | 1015.7 |
| 20260502014547 | 49 | 188 | 3.0 | 9.0 | 0.00 | 0.06 | 0.00 | 90 | 1015.8 |
| 20260502013050 | 49 | 192 | 3.0 | 9.0 | 0.00 | 0.06 | 0.00 | 89 | 1016.1 |
| 20260502011542 | 49 | 190 | 7.0 | 13.0 | 0.00 | 0.06 | 0.00 | 89 | 1016.2 |
| 20260502010049 | 50 | 191 | 6.0 | 11.0 | 0.00 | 0.06 | 0.00 | 89 | 1016.4 |